Location: Dugenta
(41.1333°N, 14.4500°E)
Time: 13:54:21
(UTC+00:00)

Cosmos 2366 rocket - Pass Details

Date: 03 March 2021
Orbit: 954 x 997 km, 82.9° (Epoch: 13 April)

Event Time Altitude Azimuth Distance (km) Brightness Sun altitude
Rises 18:19:13 0° 168° (SSE) 3,674 6.8 -16.5°
Reaches altitude 10° 18:21:47 10° 163° (SSE) 2,736 6.1 -17.0°
Maximum altitude 18:27:47 49° 91° (E) 1,254 4.1 -18.1°
Drops below altitude 10° 18:33:52 10° 18° (NNE) 2,772 6.3 -19.3°
Sets 18:36:29 0° 13° (NNE) 3,727 7.0 -19.8°
